����,���ϕ���(m/s),���ϕ���,�ő�u�ԕ���(m/s),�ő啗��������,�C��(��),���x(%),10���Ԉړ��ώZ�J��(mm),1���Ԉړ��ώZ�J��(mm),���J��(mm),�݌v�J��(mm)
2020-03-30T00:00:00+09:00,0.4,���k��,0.7,��,6.6,80.8,0,0,3.5,14
2020-03-30T00:01:00+09:00,0.4,���k��,0.8,���k��,6.6,80.4,0,0,0,14
2020-03-30T00:02:00+09:00,0.4,���k��,1,���k��,6.5,80.4,0,0,0,14
2020-03-30T00:03:00+09:00,0.5,���k��,1,���k��,6.4,80.5,0,0,0,14
2020-03-30T00:04:00+09:00,0.5,��,1,���k��,6.4,81,0,0,0,14
2020-03-30T00:05:00+09:00,0.4,���k��,1,���k��,6.4,81.9,0,0,0,14
2020-03-30T00:06:00+09:00,0.4,���k��,1,���k��,6.5,82.1,0,0,0,14
2020-03-30T00:07:00+09:00,0.4,���k��,1,���k��,6.5,82.3,0,0,0,14
2020-03-30T00:08:00+09:00,0.4,���k��,1,���k��,6.6,82.1,0,0,0,14
2020-03-30T00:09:00+09:00,0.4,���k��,1,���k��,6.5,81.9,0,0,0,14
2020-03-30T00:10:00+09:00,0.4,���k��,1,���k��,6.5,82.2,0,0,0,14
2020-03-30T00:11:00+09:00,0.4,���k��,1,���k��,6.6,82.3,0,0,0,14
2020-03-30T00:12:00+09:00,0.3,���k��,0.8,���k��,6.5,82,0,0,0,14
2020-03-30T00:13:00+09:00,0.3,���k��,0.7,���k��,6.4,81.9,0,0,0,14
2020-03-30T00:14:00+09:00,0.3,���k��,0.8,���k��,6.5,82.3,0,0,0,14
2020-03-30T00:15:00+09:00,0.4,���k��,0.8,���k��,6.6,82.5,0,0,0,14
2020-03-30T00:16:00+09:00,0.4,���k��,0.9,��,6.5,81.8,0,0,0,14
2020-03-30T00:17:00+09:00,0.5,���k��,1,���k��,6.5,81.2,0,0,0,14
2020-03-30T00:18:00+09:00,0.5,���k��,1,���k��,6.5,81.1,0,0,0,14
2020-03-30T00:19:00+09:00,0.5,���k��,1,���k��,6.5,80.9,0,0,0,14
2020-03-30T00:20:00+09:00,0.5,���k��,1,���k��,6.5,80.9,0,0,0,14
2020-03-30T00:21:00+09:00,0.5,���k��,1,���k��,6.5,81.4,0,0,0,14
2020-03-30T00:22:00+09:00,0.6,���k��,1,���k��,6.5,81.5,0,0,0,14
2020-03-30T00:23:00+09:00,0.6,���k��,1,���k��,6.5,81.4,0,0,0,14
2020-03-30T00:24:00+09:00,0.6,���k��,1,���k��,6.6,81.8,0,0,0,14
2020-03-30T00:25:00+09:00,0.6,���k��,1,���k��,6.6,81.8,0,0,0,14
2020-03-30T00:26:00+09:00,0.5,�k��,1,���k��,6.6,81.6,0,0,0,14
2020-03-30T00:27:00+09:00,0.5,�k��,1,���k��,6.6,81.9,0,0,0,14
2020-03-30T00:28:00+09:00,0.5,�k��,1,���k��,6.6,81.5,0,0,0,14
2020-03-30T00:29:00+09:00,0.5,�k��,1,���k��,6.5,81.6,0,0,0,14
2020-03-30T00:30:00+09:00,0.4,�k��,1,���k��,6.5,81.7,0,0,0,14
2020-03-30T00:31:00+09:00,0.4,�k��,1,���k��,6.5,81.7,0,0,0,14
2020-03-30T00:32:00+09:00,0.3,�k��,1,���k��,6.5,81.7,0,0,0,14
2020-03-30T00:33:00+09:00,0.3,�k��,0.8,�k��,6.6,81.6,0,0,0,14
2020-03-30T00:34:00+09:00,0.3,�k��,0.7,�k��,6.5,81.5,0,0,0,14
2020-03-30T00:35:00+09:00,0.3,���k��,0.7,�k��,6.5,81.6,0,0,0,14
2020-03-30T00:36:00+09:00,0.3,���k��,0.7,�k��,6.5,81.6,0,0,0,14
2020-03-30T00:37:00+09:00,0.3,���k��,0.7,�k��,6.6,82.1,0,0,0,14
2020-03-30T00:38:00+09:00,0.4,���k��,0.8,��,6.5,81.5,0,0,0,14
2020-03-30T00:39:00+09:00,0.4,���k��,1,�k�k��,6.6,81.9,0,0,0,14
2020-03-30T00:40:00+09:00,0.5,���k��,1,�k�k��,6.5,81.7,0,0,0,14
2020-03-30T00:41:00+09:00,0.5,���k��,1.2,��,6.4,81.9,0,0,0,14
2020-03-30T00:42:00+09:00,0.5,���k��,1.2,��,6.5,82.4,0,0,0,14
2020-03-30T00:43:00+09:00,0.5,���k��,1.2,��,6.5,82.1,0,0,0,14
2020-03-30T00:44:00+09:00,0.6,���k��,1.2,��,6.4,81.9,0,0,0,14
2020-03-30T00:45:00+09:00,0.7,���k��,1.2,��,6.4,81.8,0,0,0,14
2020-03-30T00:46:00+09:00,0.7,���k��,1.2,��,6.3,81.9,0,0,0,14
2020-03-30T00:47:00+09:00,0.7,���k��,1.2,��,6.3,82,0,0,0,14
2020-03-30T00:48:00+09:00,0.6,���k��,1.2,��,6.3,82.2,0,0,0,14
2020-03-30T00:49:00+09:00,0.6,���k��,1.2,��,6.3,82.8,0,0,0,14
2020-03-30T00:50:00+09:00,0.6,��,1.2,��,6.3,83,0,0,0,14
2020-03-30T00:51:00+09:00,0.5,��,1.1,���k��,6.3,82.8,0,0,0,14
2020-03-30T00:52:00+09:00,0.5,��,1.1,���k��,6.3,82.7,0,0,0,14
2020-03-30T00:53:00+09:00,0.5,��,1.1,���k��,6.4,83.1,0,0,0,14
2020-03-30T00:54:00+09:00,0.4,��,1.1,��,6.3,82.7,0,0,0,14
2020-03-30T00:55:00+09:00,0.5,��,1.5,��,6.3,82.8,0,0,0,14
2020-03-30T00:56:00+09:00,0.5,��,1.5,��,6.3,82.9,0,0,0,14
2020-03-30T00:57:00+09:00,0.5,��,1.5,��,6.4,83.3,0,0,0,14
2020-03-30T00:58:00+09:00,0.4,��,1.5,��,6.5,83.3,0,0,0,14
2020-03-30T00:59:00+09:00,0.4,��,1.5,��,6.4,82.5,0,0,0,14
2020-03-30T01:00:00+09:00,0.4,��,1.5,��,6.3,82.2,0,0,0,14
2020-03-30T01:01:00+09:00,0.4,���쓌,1.5,��,6.3,82.4,0,0,0,14
2020-03-30T01:02:00+09:00,0.4,���쓌,1.5,��,6.3,82.3,0,0,0,14
2020-03-30T01:03:00+09:00,0.4,���쓌,1.5,��,6.3,82.3,0,0,0,14
2020-03-30T01:04:00+09:00,0.4,�쓌,1.5,��,6.3,81.8,0,0,0,14
2020-03-30T01:05:00+09:00,0.3,�쓌,1.2,��쓌,6.2,81.5,0,0,0,14
2020-03-30T01:06:00+09:00,0.3,�쓌,1.2,��쓌,6.2,81.5,0,0,0,14
2020-03-30T01:07:00+09:00,0.4,�쓌,1.2,��쓌,6.3,81.5,0,0,0,14
2020-03-30T01:08:00+09:00,0.4,��쓌,1.2,��쓌,6.3,81.1,0,0,0,14
2020-03-30T01:09:00+09:00,0.4,�쓌,1.2,��쓌,6.3,81.1,0,0,0,14
2020-03-30T01:10:00+09:00,0.4,�쓌,1.2,��쓌,6.4,81,0,0,0,14
2020-03-30T01:11:00+09:00,0.4,�쓌,1.2,��쓌,6.4,81.7,0,0,0,14
2020-03-30T01:12:00+09:00,0.5,���쓌,1.2,��쓌,6.4,82.2,0,0,0,14
2020-03-30T01:13:00+09:00,0.5,���쓌,1.2,��쓌,6.4,82.4,0,0,0,14
2020-03-30T01:14:00+09:00,0.4,��,1.2,��쓌,6.5,82.7,0,0,0,14
2020-03-30T01:15:00+09:00,0.4,��,1,�쓌,6.5,82.5,0,0,0,14
2020-03-30T01:16:00+09:00,0.3,��,1,�쓌,6.5,82.1,0,0,0,14
2020-03-30T01:17:00+09:00,0.2,�É�,0.9,���k��,6.5,82.2,0,0,0,14
2020-03-30T01:18:00+09:00,0.2,�É�,0.9,���k��,6.4,81.7,0,0,0,14
2020-03-30T01:19:00+09:00,0.2,�É�,0.9,���k��,6.4,81.5,0,0,0,14
2020-03-30T01:20:00+09:00,0.2,�É�,0.9,���k��,6.4,81.3,0,0,0,14
2020-03-30T01:21:00+09:00,0.2,�É�,1.1,���k��,6.4,81.2,0,0,0,14
2020-03-30T01:22:00+09:00,0.3,���쓌,1.5,��,6.3,81.7,0,0,0,14
2020-03-30T01:23:00+09:00,0.3,���쓌,1.5,��,6.3,81.8,0,0,0,14
2020-03-30T01:24:00+09:00,0.4,���쓌,1.5,��,6.2,82.1,0,0,0,14
2020-03-30T01:25:00+09:00,0.5,���쓌,1.5,��,6.2,82.6,0,0,0,14
2020-03-30T01:26:00+09:00,0.6,��,1.5,��,6.3,83,0,0,0,14
2020-03-30T01:27:00+09:00,0.7,��,1.5,��,6.2,82.8,0,0,0,14
2020-03-30T01:28:00+09:00,0.7,���k��,1.5,��,6.3,83.4,0,0,0,14
2020-03-30T01:29:00+09:00,0.7,���k��,1.5,��,6.4,83.6,0,0,0,14
2020-03-30T01:30:00+09:00,0.7,���k��,1.5,��,6.3,83.2,0,0,0,14
2020-03-30T01:31:00+09:00,0.6,��,1.5,��,6.3,82.4,0,0,0,14
2020-03-30T01:32:00+09:00,0.6,��,1.5,���k��,6.3,82.7,0,0,0,14
2020-03-30T01:33:00+09:00,0.5,��,1.5,���k��,6.4,82.6,0,0,0,14
2020-03-30T01:34:00+09:00,0.4,��,1.5,���k��,6.5,82.6,0,0,0,14
2020-03-30T01:35:00+09:00,0.4,��,1.2,���k��,6.4,82.2,0,0,0,14
2020-03-30T01:36:00+09:00,0.3,��,1.2,���k��,6.3,81.8,0,0,0,14
2020-03-30T01:37:00+09:00,0.3,���쓌,1.1,���쓌,6.3,81.9,0,0,0,14
2020-03-30T01:38:00+09:00,0.4,���쓌,1.1,���쓌,6.3,81.5,0,0,0,14
2020-03-30T01:39:00+09:00,0.4,���쓌,1.1,���쓌,6.4,81.4,0,0,0,14
2020-03-30T01:40:00+09:00,0.4,���쓌,1.1,���쓌,6.4,81.2,0,0,0,14
2020-03-30T01:41:00+09:00,0.5,��,1.1,���쓌,6.4,81.5,0,0,0,14
2020-03-30T01:42:00+09:00,0.5,��,1.1,���쓌,6.5,81.7,0,0,0,14
2020-03-30T01:43:00+09:00,0.5,��,1.1,���쓌,6.5,81.6,0,0,0,14
2020-03-30T01:44:00+09:00,0.6,��,1.1,���쓌,6.5,81.7,0,0,0,14
2020-03-30T01:45:00+09:00,0.6,��,1.1,���쓌,6.5,81.8,0,0,0,14
2020-03-30T01:46:00+09:00,0.6,��,1.1,���쓌,6.3,81.5,0,0,0,14
2020-03-30T01:47:00+09:00,0.5,��,1.1,�k��,6.4,81.8,0,0,0,14
2020-03-30T01:48:00+09:00,0.5,��,1.2,���k��,6.4,81.7,0,0,0,14
2020-03-30T01:49:00+09:00,0.6,��,1.2,���k��,6.4,81.8,0,0,0,14
2020-03-30T01:50:00+09:00,0.6,��,1.2,���k��,6.4,81.9,0,0,0,14
2020-03-30T01:51:00+09:00,0.6,��,1.2,���k��,6.4,81.8,0,0,0,14
2020-03-30T01:52:00+09:00,0.6,��,1.2,���k��,6.2,81,0,0,0,14
2020-03-30T01:53:00+09:00,0.5,��,1.2,���k��,6.3,81.3,0,0,0,14
2020-03-30T01:54:00+09:00,0.5,��,1.2,���k��,6.3,81.3,0,0,0,14
2020-03-30T01:55:00+09:00,0.5,���쓌,1.2,���k��,6.3,81.5,0,0,0,14
2020-03-30T01:56:00+09:00,0.5,���쓌,1.2,���k��,6.3,81.3,0,0,0,14
2020-03-30T01:57:00+09:00,0.5,�쓌,1.2,���k��,6.3,81.5,0,0,0,14
2020-03-30T01:58:00+09:00,0.4,�쓌,1.2,���k��,6.3,81.9,0,0,0,14
2020-03-30T01:59:00+09:00,0.4,�쓌,1.4,��,6.2,82,0,0,0,14
2020-03-30T02:00:00+09:00,0.4,�쓌,1.4,��,6.2,82,0,0,0,14
2020-03-30T02:01:00+09:00,0.5,��쓌,1.4,��,6.2,82.6,0,0,0,14
2020-03-30T02:02:00+09:00,0.4,��쓌,1.4,��,6.1,82.9,0,0,0,14
2020-03-30T02:03:00+09:00,0.5,��쓌,1.4,��,6,83.1,0,0,0,14
2020-03-30T02:04:00+09:00,0.5,�쓌,1.4,��,6.1,83.6,0,0,0,14
2020-03-30T02:05:00+09:00,0.6,�쓌,1.4,��,6.2,83.9,0,0,0,14
2020-03-30T02:06:00+09:00,0.7,�쓌,1.4,��,6.2,83.7,0,0,0,14
2020-03-30T02:07:00+09:00,0.8,�쓌,1.5,���쓌,6.2,83.6,0,0,0,14
2020-03-30T02:08:00+09:00,0.8,�쓌,1.5,���쓌,6.2,83.5,0,0,0,14
2020-03-30T02:09:00+09:00,0.8,���쓌,1.5,���쓌,6.2,83.1,0,0,0,14
2020-03-30T02:10:00+09:00,0.7,���쓌,1.5,���쓌,6.2,83.5,0,0,0,14
2020-03-30T02:11:00+09:00,0.7,���쓌,1.5,���쓌,6.2,83.7,0,0,0,14
2020-03-30T02:12:00+09:00,0.7,���쓌,1.5,���쓌,6.2,83.1,0,0,0,14
2020-03-30T02:13:00+09:00,0.7,���쓌,1.5,���쓌,6.2,82.8,0,0,0,14
2020-03-30T02:14:00+09:00,0.6,���쓌,1.5,���쓌,6.2,82.9,0,0,0,14
2020-03-30T02:15:00+09:00,0.6,���쓌,1.5,���쓌,6.2,83.4,0,0,0,14
2020-03-30T02:16:00+09:00,0.5,���쓌,1.5,���쓌,6.2,83.6,0,0,0,14
2020-03-30T02:17:00+09:00,0.5,���쓌,1.2,���쓌,6.2,83.8,0,0,0,14
2020-03-30T02:18:00+09:00,0.5,��,0.9,���k��,6.3,84,0,0,0,14
2020-03-30T02:19:00+09:00,0.5,��,1.1,��,6.2,83.7,0,0,0,14
2020-03-30T02:20:00+09:00,0.6,��,1.1,��,6.1,83.8,0,0,0,14
2020-03-30T02:21:00+09:00,0.6,��,1.1,��,6.1,83.9,0,0,0,14
2020-03-30T02:22:00+09:00,0.6,��,1.1,��,6.1,84.4,0,0,0,14
2020-03-30T02:23:00+09:00,0.6,��,1.1,��,6.1,84.5,0,0,0,14
2020-03-30T02:24:00+09:00,0.7,��,1.1,��,6.2,84.8,0,0,0,14
2020-03-30T02:25:00+09:00,0.8,���k��,1.1,��,6.1,84.7,0,0,0,14
2020-03-30T02:26:00+09:00,0.8,���k��,1.1,��,6.2,85,0,0,0,14
2020-03-30T02:27:00+09:00,0.8,���k��,1.1,��,6.2,85,0,0,0,14
2020-03-30T02:28:00+09:00,0.8,���k��,1.1,��,6.3,85.1,0,0,0,14
2020-03-30T02:29:00+09:00,0.8,���k��,1.1,���k��,6.3,84.9,0,0,0,14
2020-03-30T02:30:00+09:00,0.7,���k��,1.1,���k��,6.3,84.5,0,0,0,14
2020-03-30T02:31:00+09:00,0.7,���k��,1.1,���k��,6.2,84,0,0,0,14
2020-03-30T02:32:00+09:00,0.6,���k��,1.1,���k��,6.2,83.7,0,0,0,14
2020-03-30T02:33:00+09:00,0.6,���k��,1.1,���k��,6.2,83.5,0,0,0,14
2020-03-30T02:34:00+09:00,0.6,���k��,1.1,���k��,6.2,83.2,0,0,0,14
2020-03-30T02:35:00+09:00,0.6,���k��,1.1,���k��,6.3,83.5,0,0,0,14
2020-03-30T02:36:00+09:00,0.6,���k��,1.1,��,6.3,83.1,0,0,0,14
2020-03-30T02:37:00+09:00,0.6,���k��,1.1,��,6.3,83,0,0,0,14
2020-03-30T02:38:00+09:00,0.6,��,1.1,��,6.3,82.8,0,0,0,14
2020-03-30T02:39:00+09:00,0.6,��,1.1,��,6.2,82.4,0,0,0,14
2020-03-30T02:40:00+09:00,0.6,��,1.1,��,6.2,82.2,0,0,0,14
2020-03-30T02:41:00+09:00,0.6,��,1.1,��,6.3,82.6,0,0,0,14
2020-03-30T02:42:00+09:00,0.6,��,1.1,��,6.3,82.6,0,0,0,14
2020-03-30T02:43:00+09:00,0.6,��,1.1,��,6.3,82.6,0,0,0,14
2020-03-30T02:44:00+09:00,0.6,���쓌,1.1,��,6.3,82.6,0,0,0,14
2020-03-30T02:45:00+09:00,0.6,���쓌,1.1,��,6.2,82.4,0,0,0,14
2020-03-30T02:46:00+09:00,0.5,���쓌,1.2,���k��,6.3,82.8,0,0,0,14
2020-03-30T02:47:00+09:00,0.5,���쓌,1.2,���k��,6.3,82.2,0,0,0,14
2020-03-30T02:48:00+09:00,0.5,���쓌,1.2,���k��,6.2,81.8,0,0,0,14
2020-03-30T02:49:00+09:00,0.5,���쓌,1.2,���k��,6.2,81.5,0,0,0,14
2020-03-30T02:50:00+09:00,0.5,���쓌,1.2,���k��,6.2,81.8,0,0,0,14
2020-03-30T02:51:00+09:00,0.5,���쓌,1.2,���k��,6.2,82,0,0,0,14
2020-03-30T02:52:00+09:00,0.5,���쓌,1.2,���k��,6.2,81.7,0,0,0,14
2020-03-30T02:53:00+09:00,0.5,���쓌,1.5,��,6.2,81.8,0,0,0,14
2020-03-30T02:54:00+09:00,0.6,���쓌,1.5,��,6.2,82,0,0,0,14
2020-03-30T02:55:00+09:00,0.6,���쓌,1.5,��,6.2,81.4,0,0,0,14
2020-03-30T02:56:00+09:00,0.6,���쓌,1.5,��,6.2,81.4,0,0,0,14
2020-03-30T02:57:00+09:00,0.6,���쓌,1.5,��,6.2,81.7,0,0,0,14
2020-03-30T02:58:00+09:00,0.6,��,1.5,��,6.1,82.1,0,0,0,14
2020-03-30T02:59:00+09:00,0.6,���쓌,1.5,��,6.1,82.7,0,0,0,14
2020-03-30T03:00:00+09:00,0.6,���쓌,1.5,��,6.1,82.9,0,0,0,14
2020-03-30T03:01:00+09:00,0.6,���쓌,1.5,��,6.1,82.6,0,0,0,14
2020-03-30T03:02:00+09:00,0.5,���쓌,1.5,��,6.1,82.6,0,0,0,14
2020-03-30T03:03:00+09:00,0.4,���쓌,1,�쓌,6.1,82.5,0,0,0,14
2020-03-30T03:04:00+09:00,0.4,���쓌,0.9,��,6.2,82.4,0,0,0,14
2020-03-30T03:05:00+09:00,0.3,�쓌,0.9,��,6.2,82.3,0,0,0,14
2020-03-30T03:06:00+09:00,0.3,�쓌,0.9,��,6.2,82.2,0,0,0,14
2020-03-30T03:07:00+09:00,0.2,�É�,0.9,��,6.3,82.4,0,0,0,14
2020-03-30T03:08:00+09:00,0.2,�É�,0.5,��,6.2,82.1,0,0,0,14
2020-03-30T03:09:00+09:00,0.2,�É�,0.5,���쓌,6.2,82.1,0,0,0,14
2020-03-30T03:10:00+09:00,0.2,�É�,0.5,���쓌,6.3,82,0,0,0,14
2020-03-30T03:11:00+09:00,0.2,�É�,0.5,���쓌,6.2,81.3,0,0,0,14
2020-03-30T03:12:00+09:00,0.1,�É�,0.5,���쓌,6.1,81.2,0,0,0,14
2020-03-30T03:13:00+09:00,0.2,�É�,0.5,���쓌,6.2,81.8,0,0,0,14
2020-03-30T03:14:00+09:00,0.2,�É�,0.6,��쐼,6.2,82.1,0,0,0,14
2020-03-30T03:15:00+09:00,0.2,�É�,0.6,��쐼,6.2,82.3,0,0,0,14
2020-03-30T03:16:00+09:00,0.2,�É�,0.6,��쐼,6.2,82.7,0,0,0,14
2020-03-30T03:17:00+09:00,0.2,�É�,0.9,��,6.1,82.9,0,0,0,14
2020-03-30T03:18:00+09:00,0.2,�É�,0.9,��,6,82.8,0,0,0,14
2020-03-30T03:19:00+09:00,0.2,�É�,0.9,��,6.1,83.4,0,0,0,14
2020-03-30T03:20:00+09:00,0.2,�É�,0.9,��,6.1,83.6,0,0,0,14
2020-03-30T03:21:00+09:00,0.2,�É�,0.9,��,6.1,83.9,0,0,0,14
2020-03-30T03:22:00+09:00,0.2,�É�,0.9,��,6.2,84.1,0,0,0,14
2020-03-30T03:23:00+09:00,0.2,�É�,0.9,��,6.3,84.3,0,0,0,14
2020-03-30T03:24:00+09:00,0.1,�É�,0.9,��,6.2,83.6,0,0,0,14
2020-03-30T03:25:00+09:00,0.1,�É�,0.9,��,6.2,83,0,0,0,14
2020-03-30T03:26:00+09:00,0.1,�É�,0.9,��,6.2,83.2,0,0,0,14
2020-03-30T03:27:00+09:00,0.1,�É�,0.4,��쐼,6.2,83.2,0,0,0,14
2020-03-30T03:28:00+09:00,0.1,�É�,0.4,��쐼,6.3,83.1,0,0,0,14
2020-03-30T03:29:00+09:00,0.1,�É�,0.4,��쐼,6.3,83.2,0,0,0,14
2020-03-30T03:30:00+09:00,0.1,�É�,0.7,�k��,6.3,82.9,0,0,0,14
2020-03-30T03:31:00+09:00,0.1,�É�,0.7,�k��,6.4,83.2,0,0,0,14
2020-03-30T03:32:00+09:00,0.1,�É�,0.7,�k��,6.4,82.9,0,0,0,14
2020-03-30T03:33:00+09:00,0.1,�É�,0.7,�k��,6.3,82.4,0,0,0,14
2020-03-30T03:34:00+09:00,0.2,�É�,0.7,�k��,6.3,82.7,0,0,0,14
2020-03-30T03:35:00+09:00,0.2,�É�,0.7,�k��,6.3,82.9,0,0,0,14
2020-03-30T03:36:00+09:00,0.2,�É�,0.7,�k��,6.4,83.1,0,0,0,14
2020-03-30T03:37:00+09:00,0.3,���k��,0.7,�k��,6.3,82.8,0,0,0,14
2020-03-30T03:38:00+09:00,0.3,���k��,0.7,�k��,6.2,82.7,0,0,0,14
2020-03-30T03:39:00+09:00,0.3,���k��,0.7,�k��,6.2,83.2,0,0,0,14
2020-03-30T03:40:00+09:00,0.3,���k��,0.7,���쓌,6.2,83.4,0,0,0,14
2020-03-30T03:41:00+09:00,0.3,���k��,0.7,���쓌,6.2,83.4,0,0,0,14
2020-03-30T03:42:00+09:00,0.3,���k��,0.7,���쓌,6,83.4,0,0,0,14
2020-03-30T03:43:00+09:00,0.3,���k��,0.7,���쓌,6.1,83.7,0,0,0,14
2020-03-30T03:44:00+09:00,0.3,���k��,0.7,���쓌,6.2,84.2,0,0,0,14
2020-03-30T03:45:00+09:00,0.3,��,0.7,���쓌,6.1,84.1,0,0,0,14
2020-03-30T03:46:00+09:00,0.2,�É�,0.7,���쓌,6.1,84.2,0,0,0,14
2020-03-30T03:47:00+09:00,0.2,�É�,0.5,���k��,6.1,84.2,0,0,0,14
2020-03-30T03:48:00+09:00,0.2,�É�,0.5,���k��,6.1,84,0,0,0,14
2020-03-30T03:49:00+09:00,0.2,�É�,0.5,���k��,6,83.9,0,0,0,14
2020-03-30T03:50:00+09:00,0.2,�É�,0.6,��쐼,5.9,84,0,0,0,14
2020-03-30T03:51:00+09:00,0.2,�É�,0.6,��쐼,5.9,84.2,0,0,0,14
2020-03-30T03:52:00+09:00,0.2,�É�,1.2,��,5.9,84.4,0,0,0,14
2020-03-30T03:53:00+09:00,0.3,��쐼,1.6,��쐼,5.9,84.8,0,0,0,14
2020-03-30T03:54:00+09:00,0.4,��쐼,1.6,��쐼,5.8,85.1,0,0,0,14
2020-03-30T03:55:00+09:00,0.5,��쐼,1.6,��쐼,5.8,85.4,0,0,0,14
2020-03-30T03:56:00+09:00,0.5,�쐼,1.6,��쐼,5.9,85.7,0,0,0,14
2020-03-30T03:57:00+09:00,0.5,�쐼,1.6,��쐼,6,85.9,0,0,0,14
2020-03-30T03:58:00+09:00,0.5,��쐼,1.6,��쐼,6.1,85.9,0,0,0,14
2020-03-30T03:59:00+09:00,0.5,��쐼,1.6,��쐼,6.1,85.6,0,0,0,14
2020-03-30T04:00:00+09:00,0.5,��,1.6,��쐼,6.1,85.7,0,0,0,14
2020-03-30T04:01:00+09:00,0.6,�쓌,1.6,��쐼,6,85.2,0,0,0,14
2020-03-30T04:02:00+09:00,0.6,��,1.6,��쐼,5.9,85,0,0,0,14
2020-03-30T04:03:00+09:00,0.6,��,1.6,��쐼,5.8,84.7,0,0,0,14
2020-03-30T04:04:00+09:00,0.5,���k��,1.3,��,5.9,85.3,0,0,0,14
2020-03-30T04:05:00+09:00,0.5,���k��,1.3,��,6,86,0,0,0,14
2020-03-30T04:06:00+09:00,0.5,���k��,1.3,��,5.9,85.6,0,0,0,14
2020-03-30T04:07:00+09:00,0.6,���k��,1.3,��,5.9,85.5,0,0,0,14
2020-03-30T04:08:00+09:00,0.6,��,1.3,��,5.8,85.3,0,0,0,14
2020-03-30T04:09:00+09:00,0.6,��,1.3,��,5.7,85.2,0,0,0,14
2020-03-30T04:10:00+09:00,0.6,��,1.3,��,5.8,85.5,0,0,0,14
2020-03-30T04:11:00+09:00,0.6,��,1.3,��,6,86.2,0,0,0,14
2020-03-30T04:12:00+09:00,0.6,��,1.3,��,5.9,85.7,0,0,0,14
2020-03-30T04:13:00+09:00,0.6,��,1,��,5.9,85.7,0,0,0,14
2020-03-30T04:14:00+09:00,0.5,��,1,��,5.9,85.1,0,0,0,14
2020-03-30T04:15:00+09:00,0.6,��,1,��,5.9,85.3,0,0,0,14
2020-03-30T04:16:00+09:00,0.6,��,1,��,5.9,85,0,0,0,14
2020-03-30T04:17:00+09:00,0.6,��,1,��,5.8,84.6,0,0,0,14
2020-03-30T04:18:00+09:00,0.5,��,1,��,5.8,84.6,0,0,0,14
2020-03-30T04:19:00+09:00,0.5,��,1,��,5.8,84.7,0,0,0,14
2020-03-30T04:20:00+09:00,0.5,��,1,��,5.8,85,0,0,0,14
2020-03-30T04:21:00+09:00,0.5,���쓌,1,��,5.8,85.4,0,0,0,14
2020-03-30T04:22:00+09:00,0.5,���쓌,1,��,5.9,85.3,0,0,0,14
2020-03-30T04:23:00+09:00,0.4,���쓌,1,���쓌,5.9,85.5,0,0,0,14
2020-03-30T04:24:00+09:00,0.4,���쓌,1,���쓌,5.9,85.4,0,0,0,14
2020-03-30T04:25:00+09:00,0.4,���쓌,1,���쓌,5.9,85.5,0,0,0,14
2020-03-30T04:26:00+09:00,0.5,���쓌,1,���쓌,5.7,84.9,0,0,0,14
2020-03-30T04:27:00+09:00,0.4,��,1,���쓌,5.7,85.1,0,0,0,14
2020-03-30T04:28:00+09:00,0.4,��,1,���쓌,5.8,85.5,0,0,0,14
2020-03-30T04:29:00+09:00,0.4,���k��,1,���쓌,5.8,85.8,0,0,0,14
2020-03-30T04:30:00+09:00,0.4,���k��,1,���k��,5.9,85.6,0,0,0,14
2020-03-30T04:31:00+09:00,0.4,���k��,1,���k��,5.8,85.3,0,0,0,14
2020-03-30T04:32:00+09:00,0.4,���k��,1,���k��,5.8,85.2,0,0,0,14
2020-03-30T04:33:00+09:00,0.4,���k��,1,���k��,5.8,85.1,0,0,0,14
2020-03-30T04:34:00+09:00,0.5,���k��,1,���k��,5.8,85.1,0,0,0,14
2020-03-30T04:35:00+09:00,0.4,���k��,0.9,���k��,5.8,85.1,0,0,0,14
2020-03-30T04:36:00+09:00,0.4,���k��,0.9,���k��,5.9,85.6,0,0,0,14
2020-03-30T04:37:00+09:00,0.4,���k��,0.9,���k��,5.9,85.4,0,0,0,14
2020-03-30T04:38:00+09:00,0.4,���k��,0.9,���k��,5.9,85.4,0,0,0,14
2020-03-30T04:39:00+09:00,0.4,���k��,0.9,���k��,5.8,85.1,0,0,0,14
2020-03-30T04:40:00+09:00,0.4,���k��,0.9,���k��,5.8,85.3,0,0,0,14
2020-03-30T04:41:00+09:00,0.4,���k��,0.9,���k��,5.8,85.1,0,0,0,14
2020-03-30T04:42:00+09:00,0.4,���k��,0.9,���k��,5.8,85.3,0,0,0,14
2020-03-30T04:43:00+09:00,0.3,��,0.9,�쓌,5.7,85.5,0,0,0,14
2020-03-30T04:44:00+09:00,0.3,��,0.9,�쓌,5.7,85.4,0,0,0,14
2020-03-30T04:45:00+09:00,0.3,���k��,0.9,�쓌,5.8,85.8,0,0,0,14
2020-03-30T04:46:00+09:00,0.2,�É�,0.9,�쓌,5.8,86,0,0,0,14
2020-03-30T04:47:00+09:00,0.2,�É�,0.9,�쓌,5.8,85.6,0,0,0,14
2020-03-30T04:48:00+09:00,0.3,���k��,0.9,�쓌,5.8,85.4,0,0,0,14
2020-03-30T04:49:00+09:00,0.3,���k��,0.9,�쓌,5.8,85.8,0,0,0,14
2020-03-30T04:50:00+09:00,0.3,���k��,0.9,�쓌,5.8,85.7,0,0,0,14
2020-03-30T04:51:00+09:00,0.3,���k��,0.9,�쓌,5.8,85.4,0,0,0,14
2020-03-30T04:52:00+09:00,0.3,���k��,0.9,���k��,5.8,85.2,0,0,0,14
2020-03-30T04:53:00+09:00,0.3,���k��,0.9,���k��,5.8,85.2,0,0,0,14
2020-03-30T04:54:00+09:00,0.3,���k��,1,���쓌,5.8,85,0,0,0,14
2020-03-30T04:55:00+09:00,0.4,��,1.2,���쓌,5.7,84.9,0,0,0,14
2020-03-30T04:56:00+09:00,0.5,��,1.2,���쓌,5.8,85.4,0,0,0,14
2020-03-30T04:57:00+09:00,0.5,��,1.2,���쓌,5.7,84.9,0,0,0,14
2020-03-30T04:58:00+09:00,0.4,���쓌,1.2,���쓌,5.7,85,0,0,0,14
2020-03-30T04:59:00+09:00,0.5,���쓌,1.2,���쓌,5.7,85.7,0,0,0,14
2020-03-30T05:00:00+09:00,0.4,�쓌,1.2,���쓌,5.7,85.9,0,0,0,14
2020-03-30T05:01:00+09:00,0.4,�쓌,1.2,���쓌,5.7,86.1,0,0,0,0
2020-03-30T05:02:00+09:00,0.4,�쓌,1.2,���쓌,5.7,86,0,0,0,0
2020-03-30T05:03:00+09:00,0.4,�쓌,1.2,���쓌,5.8,86,0,0,0,0
2020-03-30T05:04:00+09:00,0.3,�쓌,1.2,���쓌,5.7,85.9,0,0,0,0
2020-03-30T05:05:00+09:00,0.3,�쓌,1,�쓌,5.8,85.9,0,0,0,0
2020-03-30T05:06:00+09:00,0.3,�쓌,0.8,�쓌,5.8,86.2,0,0,0,0
2020-03-30T05:07:00+09:00,0.3,�쓌,0.7,�쓌,5.8,85.8,0,0,0,0
2020-03-30T05:08:00+09:00,0.2,�É�,0.7,�쓌,5.8,85.9,0,0,0,0
2020-03-30T05:09:00+09:00,0.2,�É�,0.6,�쓌,5.8,85.7,0,0,0,0
2020-03-30T05:10:00+09:00,0.2,�É�,0.6,�쓌,5.8,85.5,0,0,0,0
2020-03-30T05:11:00+09:00,0.2,�É�,0.6,�쓌,5.8,85.5,0,0,0,0
2020-03-30T05:12:00+09:00,0.2,�É�,0.6,�쓌,5.8,85.5,0,0,0,0
2020-03-30T05:13:00+09:00,0.2,�É�,0.6,�쓌,5.8,85.6,0,0,0,0
2020-03-30T05:14:00+09:00,0.2,�É�,0.7,��쓌,5.8,85.3,0,0,0,0
2020-03-30T05:15:00+09:00,0.2,�É�,1,��쓌,5.7,85.3,0,0,0,0
2020-03-30T05:16:00+09:00,0.2,�É�,1,��쓌,5.6,85.4,0,0,0,0
2020-03-30T05:17:00+09:00,0.3,�쓌,1,��쓌,5.6,85.8,0,0,0,0
2020-03-30T05:18:00+09:00,0.3,�쓌,1,��쓌,5.7,86.4,0,0,0,0
2020-03-30T05:19:00+09:00,0.3,��쓌,1,��쓌,5.7,86.3,0,0,0,0
2020-03-30T05:20:00+09:00,0.3,��쓌,1,��쓌,5.7,86,0,0,0,0
2020-03-30T05:21:00+09:00,0.3,��쓌,1,��쓌,5.7,85.7,0,0,0,0
2020-03-30T05:22:00+09:00,0.3,�쓌,1,��쓌,5.7,85.8,0,0,0,0
2020-03-30T05:23:00+09:00,0.4,�쓌,1,��쓌,5.8,85.9,0,0,0,0
2020-03-30T05:24:00+09:00,0.4,���쓌,1,��쓌,5.8,85.7,0,0,0,0
2020-03-30T05:25:00+09:00,0.4,���쓌,1,���k��,5.8,85.3,0,0,0,0
2020-03-30T05:26:00+09:00,0.4,��,1,���k��,5.7,85.1,0,0,0,0
2020-03-30T05:27:00+09:00,0.3,��,1,���k��,5.7,85.6,0,0,0,0
2020-03-30T05:28:00+09:00,0.3,���k��,1,���k��,5.7,85.7,0,0,0,0
2020-03-30T05:29:00+09:00,0.4,��,1,���k��,5.6,85.6,0,0,0,0
2020-03-30T05:30:00+09:00,0.5,��,1.2,��쐼,5.6,85.7,0,0,0,0
2020-03-30T05:31:00+09:00,0.5,���쓌,1.6,��쐼,5.5,85.9,0,0,0,0
2020-03-30T05:32:00+09:00,0.5,�쓌,1.7,�쐼,5.5,86.3,0,0,0,0
2020-03-30T05:33:00+09:00,0.6,��쓌,1.9,�쐼,5.4,86.9,0,0,0,0
2020-03-30T05:34:00+09:00,0.6,��,1.9,�쐼,5.5,87.4,0,0,0,0
2020-03-30T05:35:00+09:00,0.6,��,1.9,�쐼,5.5,87.5,0,0,0,0
2020-03-30T05:36:00+09:00,0.6,��쐼,1.9,�쐼,5.5,87.5,0,0,0,0
2020-03-30T05:37:00+09:00,0.7,��쐼,1.9,�쐼,5.5,87.2,0,0,0,0
2020-03-30T05:38:00+09:00,0.8,��,1.9,�쐼,5.5,87,0,0,0,0
2020-03-30T05:39:00+09:00,0.8,��,1.9,�쐼,5.5,87.4,0,0,0,0
2020-03-30T05:40:00+09:00,0.8,��,1.9,�쐼,5.6,87.5,0,0,0,0
2020-03-30T05:41:00+09:00,0.7,��쓌,1.9,�쐼,5.6,87.4,0,0,0,0
2020-03-30T05:42:00+09:00,0.7,�쓌,1.9,�쐼,5.6,86.9,0,0,0,0
2020-03-30T05:43:00+09:00,0.7,�쓌,1.6,���쓌,5.6,86.4,0,0,0,0
2020-03-30T05:44:00+09:00,0.6,�쓌,1.6,���쓌,5.7,86.1,0,0,0,0
2020-03-30T05:45:00+09:00,0.6,���쓌,1.6,���쓌,5.7,85.6,0,0,0,0
2020-03-30T05:46:00+09:00,0.7,���쓌,1.6,���쓌,5.6,85.3,0,0,0,0
2020-03-30T05:47:00+09:00,0.7,���쓌,1.6,���쓌,5.6,85.5,0,0,0,0
2020-03-30T05:48:00+09:00,0.7,��,1.6,���쓌,5.6,85.9,0,0,0,0
2020-03-30T05:49:00+09:00,0.7,��,1.6,���쓌,5.7,86.1,0,0,0,0
2020-03-30T05:50:00+09:00,0.8,��,2,���k��,5.7,86,0,0,0,0
2020-03-30T05:51:00+09:00,0.9,��,2,���k��,5.6,85.9,0,0,0,0
2020-03-30T05:52:00+09:00,0.9,��,2,���k��,5.6,85.8,0,0,0,0
2020-03-30T05:53:00+09:00,1,��,2,���k��,5.6,85.6,0,0,0,0
2020-03-30T05:54:00+09:00,1.1,���k��,2,���k��,5.5,85.6,0,0,0,0
2020-03-30T05:55:00+09:00,1.2,���k��,2,���k��,5.6,86.2,0,0,0,0
2020-03-30T05:56:00+09:00,1.2,���k��,2,���k��,5.5,86.2,0,0,0,0
2020-03-30T05:57:00+09:00,1.1,���k��,2,���k��,5.6,86.4,0,0,0,0
2020-03-30T05:58:00+09:00,1.2,���k��,2,���k��,5.5,86.4,0,0,0,0
2020-03-30T05:59:00+09:00,1.2,���k��,2,���k��,5.5,86.3,0,0,0,0
2020-03-30T06:00:00+09:00,1.1,���k��,2,���k��,5.5,86.4,0,0,0,0
2020-03-30T06:01:00+09:00,1.1,��,2,���k��,5.5,86.6,0,0,0,0
2020-03-30T06:02:00+09:00,1,��,2,���k��,5.5,86.4,0,0,0,0
2020-03-30T06:03:00+09:00,0.9,��,2,���k��,5.5,86.4,0,0,0,0
2020-03-30T06:04:00+09:00,0.8,���쓌,1.8,���k��,5.5,86.3,0,0,0,0
2020-03-30T06:05:00+09:00,0.7,���쓌,1.8,���k��,5.6,86.2,0,0,0,0
2020-03-30T06:06:00+09:00,0.7,�쓌,1.4,���쓌,5.6,86,0,0,0,0
2020-03-30T06:07:00+09:00,0.7,�쓌,1.4,���쓌,5.6,85.8,0,0,0,0
2020-03-30T06:08:00+09:00,0.7,�쓌,1.5,�쓌,5.6,85.5,0,0,0,0
2020-03-30T06:09:00+09:00,0.7,�쓌,1.5,�쓌,5.7,85.6,0,0,0,0
2020-03-30T06:10:00+09:00,0.7,�쓌,1.5,�쓌,5.7,85.4,0,0,0,0
2020-03-30T06:11:00+09:00,0.7,�쓌,1.5,�쓌,5.7,85.3,0,0,0,0
2020-03-30T06:12:00+09:00,0.8,�쓌,1.5,�쓌,5.7,85,0,0,0,0
2020-03-30T06:13:00+09:00,0.9,�쓌,1.8,���쓌,5.7,84.8,0,0,0,0
2020-03-30T06:14:00+09:00,0.9,�쓌,1.8,���쓌,5.7,84.5,0,0,0,0
2020-03-30T06:15:00+09:00,1,�쓌,1.8,���쓌,5.8,84.5,0,0,0,0
2020-03-30T06:16:00+09:00,1,�쓌,1.8,���쓌,5.8,84.3,0,0,0,0
2020-03-30T06:17:00+09:00,1,���쓌,1.8,���쓌,5.8,84.1,0,0,0,0
2020-03-30T06:18:00+09:00,1,���쓌,1.8,���쓌,5.7,84.1,0,0,0,0
2020-03-30T06:19:00+09:00,1,���쓌,1.8,���쓌,5.7,84.4,0,0,0,0
2020-03-30T06:20:00+09:00,1,���쓌,1.8,���쓌,5.7,84.9,0,0,0,0
2020-03-30T06:21:00+09:00,0.9,���쓌,1.8,���쓌,5.6,85.3,0,0,0,0
2020-03-30T06:22:00+09:00,0.8,���쓌,1.8,���쓌,5.6,85.5,0,0,0,0
2020-03-30T06:23:00+09:00,0.8,���쓌,1.6,���쓌,5.7,86.3,0,0,0,0
2020-03-30T06:24:00+09:00,0.7,��,1.3,���쓌,5.7,86.4,0,0,0,0
2020-03-30T06:25:00+09:00,0.6,��,1.3,���쓌,5.8,86.4,0,0,0,0
2020-03-30T06:26:00+09:00,0.6,��,1.1,���k��,5.7,85.7,0,0,0,0
2020-03-30T06:27:00+09:00,0.6,��,1.1,���k��,5.6,85.7,0,0,0,0
2020-03-30T06:28:00+09:00,0.6,��,1.1,���k��,5.6,86,0,0,0,0
2020-03-30T06:29:00+09:00,0.7,���k��,1.1,���k��,5.6,86.3,0,0,0,0
2020-03-30T06:30:00+09:00,0.7,���k��,1.2,���k��,5.5,85.6,0,0,0,0
2020-03-30T06:31:00+09:00,0.7,���k��,1.2,���k��,5.5,86,0,0,0,0
2020-03-30T06:32:00+09:00,0.8,���k��,1.2,���k��,5.5,86.3,0,0,0,0
2020-03-30T06:33:00+09:00,0.8,��,1.3,���쓌,5.6,86.6,0,0,0,0